Change the Weather History Date:

Thursday, December 6, 2012

  Actual Average Record
Temperature  
Mean Temperature 45 °F -  
Max Temperature 53 °F 35 °F 58 °F (1988)
Min Temperature 35 °F 14 °F -12 °F (1950)
Degree Days  
Heating Degree Days 20    
Moisture  
Dew Point 26 °F    
Average Humidity 51    
Maximum Humidity 71    
Minimum Humidity 30    
Precipitation  
Precipitation 0.00 in - - ()
Sea Level Pressure  
Sea Level Pressure 29.93 in    
Wind  
Wind Speed 13 mph (NW)    
Max Wind Speed 22 mph    
Max Gust Speed 29 mph    
Visibility 10 miles    
Events      
Averages and records for this station are not official NWS values.
T = Trace of Precipitation, MM = Missing Value Source: NWS Daily Summary

Daily Weather History Graph

Daily Weather History Graph

Search for Another Location

Airport or City:

Trip Planner

Search our weather history database for the weather conditions in past years. The results will help you decide how hot, cold, wet, or windy it might be!

Date:

Astronomy

Dec. 06, 2012 Rise Set
Actual Time 7:46 AM CST 4:55 PM CST
Civil Twilight 7:14 AM CST 5:27 PM CST
Nautical Twilight 6:38 AM CST 6:02 PM CST
Astronomical Twilight 6:04 AM CST 6:36 PM CST
Moon No Moon Rise 12:31 PM CST (12/6)
Length of Visible Light 10h 12m
Length of Day
9h 08m
Waning Gibbous, 49% of the Moon is Illuminated
Dec 6
Waning Gibbous
Dec 13
New
Dec 19
First Quarter
Dec 28
Full
Jan 4
Last Quarter

Hourly Weather History & Observations

Time (CST) Temp. Windchill Dew Point Humidity Pressure Visibility Wind Dir Wind Speed Gust Speed Precip Events Conditions
12:15 AM 53.6 °F - 23.0 °F 30% 29.73 in 10.0 mi SSW 17.3 mph 27.6 mph N/A   Partly Cloudy
12:35 AM 53.6 °F - 23.0 °F 30% 29.73 in 10.0 mi SSW 19.6 mph 28.8 mph N/A   Scattered Clouds
12:55 AM 53.6 °F - 23.0 °F 30% 29.73 in 10.0 mi SSW 17.3 mph 23.0 mph N/A   Mostly Cloudy
1:15 AM 51.8 °F - 24.8 °F 35% 29.75 in 10.0 mi SSW 18.4 mph - N/A   Clear
1:35 AM 51.8 °F - 28.4 °F 41% 29.75 in 10.0 mi SSW 9.2 mph - N/A   Clear
1:55 AM 51.8 °F - 26.6 °F 38% 29.75 in 10.0 mi SSW 11.5 mph - N/A   Clear
2:15 AM 51.8 °F - 26.6 °F 38% 29.76 in 10.0 mi SW 6.9 mph - N/A   Scattered Clouds
2:35 AM 51.8 °F - 26.6 °F 38% 29.77 in 10.0 mi SSW 9.2 mph - N/A   Mostly Cloudy
2:55 AM 50.0 °F - 26.6 °F 40% 29.79 in 10.0 mi West 8.1 mph - N/A   Mostly Cloudy
3:15 AM 48.2 °F - 32.0 °F 54% 29.81 in 10.0 mi WNW 15.0 mph 19.6 mph N/A   Partly Cloudy
3:35 AM 48.2 °F - 35.6 °F 62% 29.81 in 10.0 mi NW 11.5 mph - N/A   Clear
3:55 AM 46.4 °F 40.7 °F 37.4 °F 71% 29.82 in 10.0 mi NW 12.7 mph - N/A   Clear
4:15 AM 46.4 °F 40.7 °F 35.6 °F 66% 29.83 in 10.0 mi NW 12.7 mph - N/A   Clear
4:35 AM 46.4 °F 41.1 °F 35.6 °F 66% 29.83 in 10.0 mi NW 11.5 mph - N/A   Clear
4:55 AM 44.6 °F 38.4 °F 33.8 °F 66% 29.85 in 10.0 mi NW 12.7 mph - N/A   Clear
5:15 AM 44.6 °F 38.1 °F 33.8 °F 66% 29.86 in 10.0 mi NW 13.8 mph 19.6 mph N/A   Clear
5:35 AM 44.6 °F 37.8 °F 32.0 °F 61% 29.86 in 10.0 mi NW 15.0 mph - N/A   Partly Cloudy
5:55 AM 44.6 °F 37.8 °F 30.2 °F 57% 29.87 in 10.0 mi NW 15.0 mph - N/A   Clear
6:15 AM 44.6 °F 37.4 °F 30.2 °F 57% 29.87 in 10.0 mi NW 16.1 mph - N/A   Clear
6:35 AM 42.8 °F 35.8 °F 30.2 °F 61% 29.89 in 10.0 mi NW 13.8 mph - N/A   Partly Cloudy
6:55 AM 42.8 °F 35.1 °F 30.2 °F 61% 29.90 in 10.0 mi NW 16.1 mph - N/A   Mostly Cloudy
7:15 AM 42.8 °F 35.1 °F 28.4 °F 57% 29.91 in 10.0 mi NW 16.1 mph 19.6 mph N/A   Mostly Cloudy
7:35 AM 44.6 °F 37.4 °F 28.4 °F 53% 29.91 in 10.0 mi NW 16.1 mph - N/A   Mostly Cloudy
7:55 AM 44.6 °F 37.8 °F 28.4 °F 53% 29.92 in 10.0 mi NW 15.0 mph - N/A   Overcast
8:15 AM 42.8 °F 36.2 °F 28.4 °F 57% 29.93 in 10.0 mi NNW 12.7 mph - N/A   Overcast
8:35 AM 42.8 °F 36.6 °F 26.6 °F 53% 29.94 in 10.0 mi NW 11.5 mph - N/A   Mostly Cloudy
8:55 AM 42.8 °F 40.1 °F 26.6 °F 53% 29.95 in 10.0 mi NNW 4.6 mph - N/A   Clear
9:15 AM 42.8 °F 38.6 °F 28.4 °F 57% 29.96 in 10.0 mi West 6.9 mph - N/A   Clear
9:35 AM 44.6 °F 40.7 °F 28.4 °F 53% 29.96 in 10.0 mi WNW 6.9 mph - N/A   Clear
9:55 AM 44.6 °F 38.1 °F 26.6 °F 49% 29.97 in 10.0 mi NW 13.8 mph 20.7 mph N/A   Clear
10:15 AM 44.6 °F 37.4 °F 26.6 °F 49% 29.98 in 10.0 mi NW 16.1 mph 19.6 mph N/A   Clear
10:35 AM 44.6 °F 36.9 °F 26.6 °F 49% 29.98 in 10.0 mi NW 18.4 mph 21.9 mph N/A   Clear
10:55 AM 44.6 °F 36.9 °F 26.6 °F 49% 29.98 in 10.0 mi NW 18.4 mph 26.5 mph N/A   Clear
11:15 AM 46.4 °F 39.5 °F 24.8 °F 43% 29.98 in 10.0 mi NNW 17.3 mph - N/A   Clear
11:35 AM 46.4 °F 39.8 °F 24.8 °F 43% 29.98 in 10.0 mi NW 16.1 mph 23.0 mph N/A   Scattered Clouds
11:55 AM 46.4 °F 40.1 °F 24.8 °F 43% 29.98 in 10.0 mi NW 15.0 mph - N/A   Partly Cloudy
12:15 PM 46.4 °F 40.1 °F 24.8 °F 43% 29.97 in 10.0 mi NW 15.0 mph 24.2 mph N/A   Partly Cloudy
12:35 PM 46.4 °F 40.1 °F 23.0 °F 40% 29.97 in 10.0 mi NW 15.0 mph - N/A   Scattered Clouds
12:55 PM 48.2 °F - 24.8 °F 40% 29.96 in 10.0 mi NW 19.6 mph 23.0 mph N/A   Partly Cloudy
1:15 PM 46.4 °F 39.2 °F 23.0 °F 40% 29.97 in 10.0 mi NW 18.4 mph - N/A   Clear
1:35 PM 44.6 °F 36.9 °F 21.2 °F 39% 29.97 in 10.0 mi NW 18.4 mph 25.3 mph N/A   Clear
1:55 PM 44.6 °F 36.6 °F 21.2 °F 39% 29.97 in 10.0 mi NW 19.6 mph 24.2 mph N/A   Clear
2:15 PM 44.6 °F 37.8 °F 21.2 °F 39% 29.97 in 10.0 mi NW 15.0 mph - N/A   Scattered Clouds
2:35 PM 44.6 °F 37.2 °F 21.2 °F 39% 29.97 in 10.0 mi NW 17.3 mph 25.3 mph N/A   Partly Cloudy
2:55 PM 42.8 °F 34.0 °F 24.8 °F 49% 29.97 in 10.0 mi NW 20.7 mph 25.3 mph N/A   Partly Cloudy
3:15 PM 42.8 °F 33.8 °F 23.0 °F 46% 29.98 in 10.0 mi NW 21.9 mph 27.6 mph N/A   Mostly Cloudy
3:35 PM 42.8 °F 34.5 °F 23.0 °F 46% 29.98 in 10.0 mi NW 18.4 mph 25.3 mph N/A   Scattered Clouds
3:55 PM 42.8 °F 35.4 °F 24.8 °F 49% 29.98 in 10.0 mi NW 15.0 mph 23.0 mph N/A   Scattered Clouds
4:15 PM 42.8 °F 35.1 °F 24.8 °F 49% 29.98 in 10.0 mi NW 16.1 mph - N/A   Partly Cloudy
4:35 PM 42.8 °F 36.2 °F 24.8 °F 49% 29.99 in 10.0 mi NW 12.7 mph - N/A   Partly Cloudy
4:55 PM 42.8 °F 37.0 °F 24.8 °F 49% 29.99 in 10.0 mi NW 10.4 mph - N/A   Scattered Clouds
5:15 PM 42.8 °F 38.0 °F 24.8 °F 49% 29.98 in 10.0 mi WNW 8.1 mph - N/A   Partly Cloudy
5:35 PM 42.8 °F 38.0 °F 24.8 °F 49% 29.98 in 10.0 mi WNW 8.1 mph - N/A   Clear
5:55 PM 41.0 °F 36.4 °F 24.8 °F 53% 29.98 in 10.0 mi West 6.9 mph - N/A   Partly Cloudy
6:15 PM 41.0 °F 35.8 °F 23.0 °F 49% 29.98 in 10.0 mi NNW 8.1 mph - N/A   Partly Cloudy
6:35 PM 41.0 °F 37.1 °F 24.8 °F 53% 29.98 in 10.0 mi NW 5.8 mph - N/A   Partly Cloudy
6:55 PM 41.0 °F 36.4 °F 24.8 °F 53% 29.99 in 10.0 mi WNW 6.9 mph - N/A   Mostly Cloudy
7:15 PM 41.0 °F 35.8 °F 24.8 °F 53% 29.99 in 10.0 mi NW 8.1 mph - N/A   Overcast
7:35 PM 39.2 °F 34.2 °F 24.8 °F 56% 29.99 in 10.0 mi NNW 6.9 mph - N/A   Mostly Cloudy
7:55 PM 39.2 °F 35.0 °F 24.8 °F 56% 30.00 in 10.0 mi NNW 5.8 mph - N/A   Partly Cloudy
8:35 PM 39.2 °F 35.9 °F 24.8 °F 56% 30.00 in 10.0 mi NNW 4.6 mph - N/A   Scattered Clouds
8:55 PM 39.2 °F 37.0 °F 24.8 °F 56% 30.00 in 10.0 mi NNW 3.5 mph - N/A   Overcast
9:15 PM 37.4 °F 34.9 °F 24.8 °F 60% 30.00 in 10.0 mi WNW 3.5 mph - N/A   Overcast
9:35 PM 37.4 °F 34.9 °F 24.8 °F 60% 30.00 in 10.0 mi WNW 3.5 mph - N/A   Overcast
9:55 PM 37.4 °F 34.9 °F 24.8 °F 60% 30.01 in 10.0 mi WNW 3.5 mph - N/A   Overcast
10:15 PM 37.4 °F 34.9 °F 24.8 °F 60% 30.00 in 10.0 mi WNW 3.5 mph - N/A   Mostly Cloudy
10:35 PM 37.4 °F 33.8 °F 26.6 °F 65% 30.01 in 10.0 mi WNW 4.6 mph - N/A   Overcast
10:55 PM 37.4 °F 34.9 °F 24.8 °F 60% 30.01 in 10.0 mi NW 3.5 mph - N/A   Mostly Cloudy
11:15 PM 37.4 °F 34.9 °F 24.8 °F 60% 30.01 in 10.0 mi NW 3.5 mph - N/A   Scattered Clouds
11:35 PM 37.4 °F 34.9 °F 26.6 °F 65% 30.01 in 10.0 mi WNW 3.5 mph - N/A   Mostly Cloudy
11:55 PM 35.6 °F - 26.6 °F 70% 30.01 in 10.0 mi Calm Calm - N/A   Overcast